P/2020 V4 ( Rankin )

Japanese version
Home page
Updated on April 4, 2021

---------------------------------------------------------------------

* Profile

Discovery Date November 15, 2020
Magnitude 19.2 mag
Discoverer David Rankin (Mount Lemmon Survey)

* Pictures

* Orbital Elements

Epoch 2021 July 5.0 TT = JDT 2459400.5
T 2021 July 17.90871 TT                                 Rudenko
q   5.1485970            (2000.0)            P               Q
n   0.03451690     Peri.  256.99459     -0.17033405     -0.98048715
a   9.3421798      Node   203.50806     +0.97226972     -0.15103508
e   0.4488870      Incl.   14.24316     +0.16024328     -0.12583063
P  28.6
From 290 observations 2019 Sept. 22-2021 Mar. 14, mean residual 0".5.

* Magnitudes Graph

        m1 = -14.0 + 5 log d + 40.0 log r

---------------------------------------------------------------------

The orbital elements are published on M.P.E.C. 2021-F115.
The magnitudes graphs are made with Comet for Windows.

---------------------------------------------------------------------

Copyright(C) Seiichi Yoshida (comet@aerith.net). All rights reserved.